GFSNIL_con_3kmhel_231.txt.gz
Helicity
72 54 48 57 67 78 107 117 93 102 69 36 22 11 -8 -28 -29 -26 -19 -2 -3 47
56 35 24 29 43 45 76 72 69 89 78 50 35 25 7 -13 -6 -7 -4 8 8 16
43 40 47 9 35 -4 21 28 59 73 74 57 56 46 29 13 -9 -10 0 -4 -16 -27
75 62 44 18 6 0 -23 50 38 19 27 34 36 36 43 36 14 -5 -20 5 3 -12
59 62 59 57 65 62 43 -7 -13 9 -10 -15 -6 -2 19 34 24 9 -2 6 0 -20
60 82 87 61 55 78 83 65 67 60 42 32 22 -14 -17 -4 -2 -1 -10 -16 -1 6
86 80 81 71 48 48 53 61 72 87 78 66 64 51 34 23 15 7 -8 -26 -17 -9
103 89 75 77 71 52 39 39 48 54 66 76 72 68 89 78 66 56 34 25 19 9
97 87 62 48 36 38 38 31 28 31 44 50 67 98 91 86 88 96 89 80 81 81
88 89 77 62 64 65 61 59 58 49 52 55 54 56 62 49 38 33 46 59 55 58
147 138 134 129 108 79 53 50 52 66 76 81 103 109 112 107 67 52 43 45 55 68
112 105 116 113 91 75 71 54 50 47 43 43 36 49 62 68 48 39 35 50 68 79
115 110 116 105 91 60 40 47 55 58 74 60 45 73 101 67 35 32 45 29 43 61
99 110 117 94 65 57 57 56 65 82 72 63 71 96 148 181 98 98 80 69 71 94

GFSNIL_con_3kmhel_234.txt.gz
Helicity
42 56 63 52 64 59 68 77 66 73 51 29 10 -2 -14 -26 -32 -34 -26 -10 -7 -11
44 38 24 22 22 29 43 42 40 46 52 40 16 3 -6 -13 -29 -36 -33 -19 -9 -3
35 15 11 -13 -10 -18 -16 -7 20 25 31 26 19 4 1 -11 -19 -24 -40 -41 -34 -31
57 40 23 -5 -1 -7 -0 -4 -12 -23 -8 -0 13 11 4 1 -10 -16 -33 -36 -23 -21
63 70 65 52 68 57 50 48 47 33 -0 -14 -6 -5 2 9 4 1 -13 -21 -44 -31
52 66 43 37 43 59 69 80 85 71 65 58 47 32 11 -6 -16 -16 -7 -5 -13 -24
102 106 102 77 57 51 48 59 68 73 92 101 102 87 75 51 32 11 8 10 13 4
79 81 82 74 44 22 18 21 33 48 62 69 76 75 79 108 112 93 83 77 68 61
81 71 64 62 59 57 46 50 54 63 61 71 85 110 111 87 81 88 87 89 101 101
110 112 110 107 101 84 72 65 69 71 71 85 80 108 94 84 64 64 60 56 58 63
124 113 108 114 109 89 68 61 46 50 58 60 62 76 81 82 65 63 65 62 60 63
103 105 118 125 121 105 79 55 36 34 51 54 64 77 82 47 40 47 58 73 73 70
80 98 116 121 117 84 83 97 89 95 97 91 100 163 153 82 13 20 23 63 79 117
91 104 108 103 98 107 104 93 88 95 124 127 106 120 122 110 47 30 25 35 57 69

GFSNIL_con_3kmhel_237.txt.gz
Helicity
20 29 36 45 37 45 49 48 33 38 34 21 4 -8 -17 -22 -27 -38 -43 -23 -11 -17
29 30 16 21 13 8 17 18 20 24 17 6 -2 -6 -14 -20 -28 -40 -47 -32 -34 -25
3 -5 -2 -2 -19 -29 -23 -24 -21 3 4 2 -4 -11 -11 -19 -24 -33 -40 -42 -40 -41
-2 -16 -22 -16 -46 -39 -37 23 -48 -3 -21 -15 -9 -5 -8 -13 -20 -20 -34 -40 -37 -37
41 52 53 53 54 40 54 67 54 47 4 -47 -38 -27 -15 -17 -14 -13 -23 -30 -42 -38
67 79 79 76 66 68 63 71 77 75 79 76 70 59 38 -3 -24 -23 -19 -24 -26 -35
88 94 93 90 81 72 65 64 68 80 90 103 96 112 108 77 57 54 49 48 49 46
111 108 101 95 90 88 88 75 69 72 78 94 102 96 97 95 95 98 100 99 89 76
106 109 106 103 98 101 100 99 96 96 89 95 94 107 101 82 85 85 86 98 107 113
112 116 107 100 99 98 105 99 92 89 89 84 77 104 94 87 70 77 81 73 68 73
122 113 100 89 85 90 80 86 73 71 76 78 112 108 97 83 73 77 86 91 89 89
96 89 83 85 87 76 83 80 76 71 90 137 133 149 131 87 86 90 101 106 116 116
95 91 86 85 93 94 92 95 101 116 115 126 119 142 122 70 45 57 71 94 108 115
93 85 72 84 91 99 123 142 142 129 114 116 105 87 92 76 18 30 45 48 78 86

GFSNIL_con_3kmhel_240.txt.gz
Helicity
16 21 27 7 1 33 23 35 16 12 17 20 0 -15 -21 -21 -30 -37 -41 -28 -26 -19
14 17 36 8 25 17 -1 -1 6 15 10 0 -1 -6 -17 -23 -26 -32 -36 -33 -22 -15
-11 -7 6 -1 -4 -27 -22 -25 -30 -21 -9 -11 -9 -11 -13 -25 -31 -33 -39 -36 -21 -25
-4 -6 -15 -47 -64 -66 -21 -44 -3 -45 -37 -30 -21 -16 -12 -16 -25 -25 -31 -34 -29 -33
17 47 60 43 26 41 40 31 26 39 25 -3 -15 -39 -31 -21 -28 -18 -21 -28 -26 -28
60 78 74 59 46 46 45 48 58 64 67 73 74 59 38 23 5 -24 5 -6 21 -6
74 75 74 75 69 56 52 54 50 55 64 73 88 103 108 98 85 71 64 60 62 66
91 88 84 80 75 77 73 68 71 72 75 82 89 93 85 81 81 85 87 94 93 97
127 94 80 69 68 74 79 80 84 97 100 114 106 104 91 77 77 80 83 89 97 104
118 83 75 71 71 69 72 77 85 91 100 107 100 114 99 84 68 71 74 70 73 84
75 63 60 62 67 70 72 75 77 93 111 122 128 135 121 107 91 91 97 96 90 83
60 62 51 54 58 64 73 78 78 81 111 134 146 166 140 96 75 73 79 87 96 100
58 48 43 53 64 66 78 101 121 145 130 127 124 123 116 85 58 64 72 78 79 85
47 48 55 68 83 91 116 132 135 147 129 110 88 87 88 78 52 52 53 58 62 61